User: anonymous   Login
Location: Hartman Creek State Park
(44.3257°N, 89.2134°W)
Time: 06:59:02
(UTC-05:00)
Language:

BREEZE-M DEB (TANK) - Orbit

View from above orbital plane
View from above orbital plane
View from above satellite
View from above satellite

Ground track
Ground track

The orbit data is extracted from the following two-line orbital elements,

1 29649U 06056B   17233.32743188 +.00001646 +00000-0 +41612-3 0  9993
2 29649 049.4741 186.2218 5370627 202.0608 121.6315 04.99666286191047
Epoch (UTC): 21 August 2017 07:51:30
Eccentricity: 0.5370627
inclination: 49.4741°
perigee height: 312 km
apogee height: 15836 km
right ascension of ascending node: 186.2218°
argument of perigee: 202.0608°
revolutions per day: 4.99666286
mean anomaly at epoch: 121.6315°
orbit number at epoch: 19104

The dashed part of the orbit path shows where the satellite is in the earth's shadow,  

DLR